Location: Newark
(46.7000°N, 60.6000°W)
Time: 21:14:41
(UTC+00:00)

Vanguard 1 Rocket - Pass Details

Date: 08 November 2020
Orbit: 656 x 4221 km, 34.3° (Epoch: 30 November)

Event Time Altitude Azimuth Distance (km) Brightness Sun altitude
Rises 10:53:26 0° 230° (SW) 6,098 11.3 -1.2°
Reaches altitude 10° 10:58:58 10° 220° (SW) 4,415 10.8 -0.3°
Maximum altitude 11:07:06 25° 171° (S) 2,428 10.1 1.0°
Drops below altitude 10° 11:12:22 10° 118° (ESE) 2,751 12.5 1.8°
Sets 11:14:55 0° 103° (ESE) 3,430 12.4 2.2°
